Tracy, MN

11:55 PM CDT on March 28, 2017 (GMT -0500)
Tracy

Weather History for KTKC - April, 2012

Change the Weather History Date:

Tuesday, April 24, 2012

  Actual Average (KMML) Record (KMML)
Temperature  
Mean Temperature 64 °F -  
Max Temperature 79 °F 62 °F 80 °F (1990)
Min Temperature 49 °F 37 °F 19 °F (1967)
Degree Days  
Heating Degree Days 1    
Growing Degree Days 14 (Base 50)    
Moisture  
Dew Point 42 °F    
Average Humidity 46    
Maximum Humidity 62    
Minimum Humidity 27    
Precipitation  
Precipitation 0.00 in - - ()
Sea Level Pressure  
Sea Level Pressure 29.65 in    
Wind  
Wind Speed 9 mph (South)    
Max Wind Speed 14 mph    
Max Gust Speed -    
Visibility 10 miles    
Events      
Averages and records for this station are not official NWS values.
T = Trace of Precipitation, MM = Missing Value Source: NWS Daily Summary

Daily Weather History Graph

Daily Weather History Graph

Search for Another Location

Airport or City:

Trip Planner

Search our weather history database for the weather conditions in past years. The results will help you decide how hot, cold, wet, or windy it might be!

Date:

Astronomy

Apr. 24, 2012 Rise Set
Actual Time 6:23 AM CDT 8:18 PM CDT
Civil Twilight 5:52 AM CDT 8:49 PM CDT
Nautical Twilight 5:14 AM CDT 9:27 PM CDT
Astronomical Twilight 4:32 AM CDT 10:09 PM CDT
Moon 8:13 AM CDT (4/24) 11:45 PM CDT (4/24)
Length of Visible Light 14h 57m
Length of Day
13h 55m
Waxing Crescent, 10% of the Moon is Illuminated
Apr 24
Waxing Crescent
Apr 29
First Quarter
May 5
Full
May 12
Last Quarter
May 20
New

Hourly Weather History & Observations

Time (CDT) Temp. Dew Point Humidity Pressure Visibility Wind Dir Wind Speed Gust Speed Precip Events Conditions
12:13 AM 55.6 °F 34.0 °F 44% 29.82 in 10.0 mi SSW 9.2 mph - N/A   Clear
12:33 AM 55.4 °F 34.0 °F 44% 29.81 in 10.0 mi SSW 10.4 mph - N/A   Clear
12:54 AM 55.6 °F 33.6 °F 44% 29.80 in 10.0 mi South 8.1 mph - N/A   Clear
1:14 AM 54.9 °F 33.8 °F 45% 29.79 in 10.0 mi SSW 11.5 mph - N/A   Clear
1:33 AM 54.5 °F 34.2 °F 46% 29.78 in 10.0 mi SSW 12.7 mph - N/A   Clear
1:54 AM 54.3 °F 34.3 °F 47% 29.77 in 10.0 mi SSW 12.7 mph - N/A   Clear
2:13 AM 54.1 °F 34.5 °F 48% 29.76 in 10.0 mi SSW 13.8 mph - N/A   Clear
2:54 AM 52.3 °F 35.2 °F 52% 29.74 in 10.0 mi SSW 12.7 mph - N/A   Clear
3:13 AM 52.0 °F 35.6 °F 54% 29.74 in 10.0 mi SSW 13.8 mph - N/A   Clear
3:34 AM 51.4 °F 36.0 °F 56% 29.73 in 10.0 mi SSW 13.8 mph - N/A   Clear
3:53 AM 51.3 °F 36.1 °F 56% 29.72 in 10.0 mi SW 13.8 mph - N/A   Clear
4:13 AM 50.9 °F 36.3 °F 57% 29.72 in 10.0 mi SW 13.8 mph - N/A   Clear
4:34 AM 51.1 °F 36.0 °F 56% 29.71 in 10.0 mi SW 13.8 mph - N/A   Clear
4:53 AM 51.1 °F 36.3 °F 57% 29.70 in 10.0 mi SW 13.8 mph - N/A   Clear
5:14 AM 50.7 °F 36.5 °F 58% 29.69 in 10.0 mi SW 12.7 mph - N/A   Clear
5:33 AM 50.9 °F 36.5 °F 58% 29.69 in 10.0 mi SW 13.8 mph - N/A   Clear
5:54 AM 50.0 °F 36.5 °F 60% 29.68 in 10.0 mi SW 12.7 mph - N/A   Clear
6:13 AM 49.8 °F 36.5 °F 60% 29.68 in 10.0 mi SW 12.7 mph - N/A   Clear
6:33 AM 49.3 °F 36.9 °F 62% 29.68 in 10.0 mi SW 11.5 mph - N/A   Clear
6:53 AM 49.5 °F 37.0 °F 62% 29.68 in 10.0 mi SW 11.5 mph - N/A   Clear
7:13 AM 50.4 °F 37.6 °F 62% 29.67 in 10.0 mi SW 12.7 mph - N/A   Clear
7:33 AM 52.2 °F 38.7 °F 60% 29.67 in 10.0 mi SW 11.5 mph - N/A   Clear
7:53 AM 55.0 °F 39.6 °F 56% 29.66 in 10.0 mi SW 12.7 mph - N/A   Clear
8:13 AM 56.7 °F 40.5 °F 55% 29.66 in 10.0 mi SW 11.5 mph - N/A   Clear
8:33 AM 58.5 °F 41.5 °F 53% 29.66 in 10.0 mi SW 9.2 mph - N/A   Clear
8:54 AM 60.8 °F 42.8 °F 52% 29.66 in 10.0 mi WSW 8.1 mph - N/A   Clear
9:13 AM 63.0 °F 43.7 °F 49% 29.67 in 10.0 mi Calm Calm - N/A   Clear
9:33 AM 64.8 °F 44.1 °F 47% 29.67 in 10.0 mi Calm Calm - N/A   Clear
9:53 AM 66.4 °F 45.3 °F 47% 29.66 in 10.0 mi North 5.8 mph - N/A   Clear
10:13 AM 66.2 °F 45.3 °F 47% 29.67 in 10.0 mi NNW 4.6 mph - N/A   Clear
10:34 AM 66.2 °F 45.1 °F 47% 29.66 in 10.0 mi Calm Calm - N/A   Clear
10:53 AM 68.0 °F 46.2 °F 46% 29.65 in 10.0 mi North 6.9 mph - N/A   Clear
11:13 AM 69.6 °F 45.9 °F 43% 29.66 in 10.0 mi North 8.1 mph - N/A   Clear
11:33 AM 70.2 °F 45.9 °F 42% 29.66 in 10.0 mi North 9.2 mph - N/A   Clear
11:53 AM 71.1 °F 46.4 °F 41% 29.66 in 10.0 mi North 9.2 mph - N/A   Clear
12:13 PM 71.4 °F 45.9 °F 40% 29.66 in 10.0 mi North 9.2 mph - N/A   Clear
12:33 PM 71.8 °F 46.2 °F 40% 29.65 in 10.0 mi NNE 6.9 mph - N/A   Clear
12:53 PM 73.0 °F 46.4 °F 39% 29.65 in 10.0 mi North 3.5 mph - N/A   Clear
1:14 PM 73.6 °F 45.9 °F 37% 29.65 in 10.0 mi NE 4.6 mph - N/A   Clear
1:33 PM 74.7 °F 46.6 °F 37% 29.64 in 10.0 mi North 8.1 mph - N/A   Clear
1:53 PM 75.4 °F 45.1 °F 34% 29.64 in 10.0 mi North 8.1 mph - N/A   Clear
2:13 PM 75.9 °F 44.8 °F 33% 29.64 in 10.0 mi North 8.1 mph - N/A   Clear
2:33 PM 77.2 °F 46.0 °F 33% 29.64 in 10.0 mi North 5.8 mph - N/A   Clear
2:53 PM 77.0 °F 45.7 °F 33% 29.63 in 10.0 mi North 8.1 mph - N/A   Clear
3:13 PM 78.3 °F 45.0 °F 31% 29.63 in 10.0 mi North 6.9 mph - N/A   Clear
3:33 PM 78.6 °F 42.3 °F 27% 29.62 in 10.0 mi North 5.8 mph - N/A   Clear
3:53 PM 78.6 °F 43.0 °F 28% 29.61 in 10.0 mi Calm Calm - N/A   Clear
4:13 PM 78.8 °F 44.4 °F 30% 29.60 in 10.0 mi NE 6.9 mph - N/A   Clear
4:33 PM 78.4 °F 42.6 °F 28% 29.61 in 10.0 mi NNE 3.5 mph - N/A   Clear
4:53 PM 79.3 °F 44.4 °F 29% 29.60 in 10.0 mi ENE 6.9 mph - N/A   Clear
5:13 PM 78.8 °F 41.9 °F 27% 29.60 in 10.0 mi North 5.8 mph - N/A   Clear
5:33 PM 78.4 °F 42.4 °F 28% 29.59 in 10.0 mi East 5.8 mph - N/A   Clear
5:54 PM 78.3 °F 42.1 °F 27% 29.59 in 10.0 mi Calm Calm - N/A   Clear
6:13 PM 78.1 °F 41.5 °F 27% 29.59 in 10.0 mi Calm Calm - N/A   Clear
6:33 PM 76.6 °F 44.2 °F 32% 29.58 in 10.0 mi Calm Calm - N/A   Clear
6:53 PM 75.7 °F 43.2 °F 31% 29.57 in 10.0 mi Calm Calm - N/A   Clear
7:33 PM 72.7 °F 47.3 °F 40% 29.57 in 10.0 mi ENE 4.6 mph - N/A   Clear
7:53 PM 70.7 °F 47.3 °F 43% 29.57 in 10.0 mi East 6.9 mph - N/A   Clear
8:13 PM 68.9 °F 46.8 °F 45% 29.56 in 10.0 mi East 6.9 mph - N/A   Clear
8:34 PM 66.4 °F 47.7 °F 51% 29.56 in 10.0 mi ESE 5.8 mph - N/A   Clear
8:53 PM 66.0 °F 46.9 °F 50% 29.57 in 10.0 mi ESE 6.9 mph - N/A   Clear
9:13 PM 65.3 °F 46.8 °F 51% 29.56 in 10.0 mi SE 6.9 mph - N/A   Clear
9:34 PM 65.3 °F 46.4 °F 50% 29.56 in 10.0 mi SE 8.1 mph - N/A   Clear
9:53 PM 64.6 °F 46.8 °F 52% 29.56 in 10.0 mi SE 10.4 mph - N/A   Clear
10:13 PM 63.9 °F 46.6 °F 53% 29.55 in 10.0 mi SE 8.1 mph - N/A   Clear
10:34 PM 63.9 °F 46.4 °F 53% 29.55 in 10.0 mi SE 9.2 mph - N/A   Clear
10:54 PM 63.5 °F 46.0 °F 53% 29.55 in 10.0 mi SSE 9.2 mph - N/A   Clear
11:14 PM 61.7 °F 46.6 °F 58% 29.55 in 10.0 mi SSE 6.9 mph - N/A   Clear
11:33 PM 61.3 °F 46.6 °F 58% 29.54 in 10.0 mi SSE 8.1 mph - N/A   Clear
11:53 PM 61.3 °F 46.6 °F 58% 29.53 in 10.0 mi SSE 6.9 mph - N/A   Clear